[[{"header":{"parameterUnit":"m.s-1","parameterCategory":2,"la1":30.2991,"la2":30.254,"lo1":-89.0895,"lo2":-89.0444,"dy":0.0017,"dx":0.0017,"nx":28,"ny":28,"refTime":"2024-04-23T03:00:00:Z","depth":"0","parameterNumber":2,"parameterNumberName":"U-component_of_CURRENTS"},"data":[0,0,0,0,0,0,0,0,0,0,0,0,0,0,0,0,0,0,0,0,0,0,0,0,0,0,0,0,0,0,0,0,0,0,0,0,0,0,0,0,0,0,0,0,0,0,0,0,0,0,0,0,0,0,0,0,0,0,0.1787,0.1787,0,0.1813,0.1814,0.1814,0.183,0.183,0.183,0.183,0.1845,0.1845,0.1845,0,0,0,0,0,0,0,0,0,0,0,0,0,0.1786,0.1786,0.1787,0.1787,0.1787,0.1813,0.1814,0.1814,0.183,0.183,0.183,0.183,0.1845,0.1845,0.1845,0,0,0,0,0,0,0,0,0,0,0,0,0,0.1798,0.1786,0.1787,0.1798,0.1799,0.1813,0.1814,0.1814,0.183,0.183,0.183,0.183,0.1844,0.1845,0.1845,0.1849,0,0,0.1847,0.1847,0,0,0,0,0,0,0,0,0.1797,0.1798,0.1796,0.1797,0.1799,0.1818,0.1819,0.1825,0.183,0.1819,0.183,0.183,0.1834,0.1836,0.1842,0.1849,0.185,0.1847,0.1848,0.1848,0.1848,0,0,0,0,0,0,0,0.1796,0.1797,0.1798,0.1796,0.1798,0.1814,0.1815,0.182,0.1826,0.182,0.1821,0.1823,0.1835,0.1841,0.1842,0.185,0.1847,0.1848,0.1848,0.1848,0.1907,0.1908,0,0,0,0,0,0,0.1789,0.1796,0.1797,0.1799,0.1797,0.1814,0.1815,0.1812,0.1827,0.1829,0.1823,0.1824,0.184,0.1841,0.1843,0.1873,0.1848,0.1848,0.1849,0.1906,0.1907,0.1909,0,0,0,0,0,0,0.1789,0.1789,0.1796,0.1798,0.18,0.1813,0.181,0.1813,0.182,0.1829,0.1831,0.1828,0.184,0.1842,0.1855,0.1873,0.1849,0.1849,0.1904,0.1906,0.1908,0.1917,0,0,0,0,0,0,0.1789,0.1789,0.1787,0.1797,0.1799,0.1807,0.181,0.1813,0.1821,0.1822,0.1834,0.1835,0.184,0.1854,0.1855,0.1873,0.185,0.1903,0.1905,0.1907,0.1915,0.1919,0.1922,0,0,0,0,0,0.1789,0.1777,0.1787,0.1787,0.1796,0.1807,0.181,0.1821,0.1821,0.1827,0.1838,0.1835,0.187,0.1855,0.1856,0.1875,0.1902,0.1904,0.1907,0.1914,0.1918,0.1922,0,0,0,0,0,0,0.177,0.1778,0.1789,0.178,0.1797,0.181,0.1811,0.1821,0.1834,0.1834,0.1841,0.1844,0.1868,0.187,0.1853,0.1901,0.1889,0.1892,0.1894,0.1898,0.1901,0.1905,0.185,0,0,0,0,0,0.1767,0.1766,0.1781,0.1777,0.1782,0.1799,0.1805,0.1816,0.1827,0.1833,0.1845,0.1861,0.1881,0.1886,0.1904,0.1919,0.1995,0.1936,0.194,0.1943,0.1948,0.2027,0.2038,0.1917,0.1917,0.1917,0,0,0.1756,0.1763,0.1761,0.1774,0.1785,0.1801,0.1803,0.1812,0.183,0.1832,0.1856,0.1872,0.1889,0.1916,0.1926,0.1916,0.2043,0.1946,0.1948,0.1953,0.2031,0.2043,0.2053,0.1919,0.1919,0.1919,0,0,0.1739,0.1743,0.1741,0.1759,0.178,0.1796,0.1799,0.1821,0.1833,0.1856,0.1872,0.1896,0.1917,0.1941,0.1952,0.1984,0.2061,0.1995,0.2008,0.2084,0.2095,0.2104,0.2328,0.2358,0.1992,0.1992,0.1992,0,0.1727,0.1735,0.1744,0.1755,0.1774,0.1795,0.1811,0.1826,0.1853,0.1873,0.1864,0.1927,0.1932,0.1978,0.1989,0.1992,0.2097,0.1986,0.2089,0.2099,0.2109,0.2335,0.2367,0.1993,0.1993,0.1992,0.1992,0,0.1719,0.1733,0.1732,0.1761,0.1781,0.1796,0.1825,0.1848,0.1866,0.189,0.1938,0.1953,0.2001,0.2001,0.1999,0.2074,0.2157,0.2087,0.2076,0.2122,0.2359,0.2393,0.1994,0.1993,0.1993,0.1993,0,0,0.1679,0.1719,0.1722,0.1752,0.179,0.181,0.1839,0.1884,0.1925,0.1941,0.201,0.2016,0.2043,0.206,0.2073,0.2115,0.2301,0.2129,0.2132,0.2353,0.26,0.2661,0.2705,0.2241,0.2244,0.2247,0.2779,0,0.1678,0.1713,0.1728,0.1772,0.1804,0.1835,0.1869,0.1913,0.1954,0.2028,0.2049,0.2126,0.2063,0.2117,0.214,0.2266,0.2371,0.2172,0.2521,0.2536,0.2579,0.2735,0.267,0.3133,0.2812,0.2818,0.2822,0,0.1682,0.171,0.1752,0.1815,0.1827,0.1849,0.1932,0.1974,0.2064,0.2105,0.2164,0.2214,0.233,0.2247,0.2485,0.2368,0.2492,0.2569,0.2589,0.2652,0.2652,0.3013,0.3207,0.3098,0.2873,0.2869,0.2866,0,0.1703,0.1736,0.1777,0.1797,0.1859,0.1878,0.1919,0.1996,0.2079,0.2196,0.2301,0.2383,0.2524,0.2608,0.2772,0.266,0.3059,0.2933,0.3128,0.3142,0.3157,0.3163,0.327,0.3104,0.3102,0.3101,0.3099,0,0.1727,0.1767,0.1785,0.182,0.1879,0.1904,0.2006,0.2049,0.2175,0.2324,0.2364,0.2531,0.2608,0.2828,0.2898,0.318,0.3191,0.3205,0.3269,0.3172,0.3172,0.3128,0.3013,0.3121,0.3117,0.3113,0.3109,0,0.1797,0.1788,0.1863,0.1901,0.1905,0.197,0.2087,0.2195,0.2278,0.2492,0.2564,0.2753,0.3039,0.3164,0.3411,0.3426,0.3555,0.3709,0.367,0.3714,0.3702,0.3589,0.3686,0.3579,0.4036,0.404,0.4044,0,0.1866,0.1904,0.1951,0.1998,0.202,0.2104,0.2195,0.2261,0.239,0.2644,0.2779,0.309,0.3277,0.3701,0.3818,0.406,0.3816,0.4138,0.3838,0.376,0.3683,0.3454,0.3334,0.3953,0.3956,0.3958,0.396,0,0.2022,0.2023,0.2072,0.2143,0.2212,0.2301,0.2408,0.2498,0.2633,0.2772,0.2994,0.3145,0.3584,0.3781,0.4101,0.4201,0.3921,0.419,0.4081,0.3623,0.3408,0.3316,0.3648,0.398,0.3978,0.3976,0.3975,0.3974,0.2151,0.2196,0.2217,0.2281,0.2362,0.2415,0.2455,0.2577,0.2687,0.2829,0.3064,0.3245,0.3642,0.4044,0.4139,0.4277,0.4109,0.4167,0.4071,0.3874,0.3613,0.4057,0.442,0.442,0.4421,0.4421,0.4421,0,0.2227,0.2239,0.2353,0.2354,0.2424,0.2436,0.2538,0.2545,0.2593,0.2823,0.2947,0.3332,0.3614,0.3903,0.4219,0.4153,0.391,0.4059,0.3675,0.358,0.4012,0.384,0.412,0.412,0.412,0.412,0.412,0.4121,0.2253,0.2291,0.2305,0.2344,0.2373,0.2362,0.237,0.2383,0.2483,0.2634,0.2819,0.3033,0.3492,0.3922,0.4031,0.3962,0.3613,0.3542,0.3434,0.3685,0.3683,0.3681,0.3491,0.3693,0.3693,0.2888,0.2882,0.2877]},{"header":{"parameterUnit":"m.s-1","parameterCategory":2,"la1":30.2991,"la2":30.254,"lo1":-89.0895,"lo2":-89.0444,"dy":0.0017,"dx":0.0017,"nx":28,"ny":28,"refTime":"2024-04-23T03:00:00:Z","depth":"0","parameterNumber":3,"parameterNumberName":"V-component_of_CURRENTS"},"data":[0,0,0,0,0,0,0,0,0,0,0,0,0,0,0,0,0,0,0,0,0,0,0,0,0,0,0,0,0,0,0,0,0,0,0,0,0,0,0,0,0,0,0,0,0,0,0,0,0,0,0,0,0,0,0,0,0,0,0.0065,0.0065,0,0.0041,0.0041,0.0041,0.0023,0.0022,0.0022,0.0022,0.0025,0.0025,0.0026,0,0,0,0,0,0,0,0,0,0,0,0,0,0.0063,0.0063,0.0065,0.0065,0.0064,0.0041,0.0041,0.0041,0.0023,0.0022,0.0022,0.0021,0.0025,0.0025,0.0026,0,0,0,0,0,0,0,0,0,0,0,0,0,0.0056,0.0063,0.0065,0.005,0.0049,0.0041,0.0041,0.0041,0.0023,0.0022,0.0022,0.0021,0.0024,0.0025,0.0026,0.0042,0,0,0.0028,0.0028,0,0,0,0,0,0,0,0,0.0057,0.0057,0.0053,0.0051,0.0049,0.0032,0.0041,0.0042,0.0023,0.0035,0.0022,0.0021,0.0029,0.0029,0.0029,0.0042,0.0042,0.0028,0.0028,0.0029,0.0029,0,0,0,0,0,0,0,0.0057,0.0057,0.0058,0.0053,0.005,0.0034,0.0033,0.0041,0.0038,0.0034,0.0032,0.0026,0.0028,0.0028,0.0029,0.0042,0.0028,0.0028,0.0029,0.0029,-0.0001,-0.0002,0,0,0,0,0,0,0.0058,0.0058,0.0059,0.0057,0.0049,0.0034,0.0033,0.004,0.0037,0.0035,0.0026,0.0025,0.0027,0.0028,0.0029,-0.0001,0.0029,0.0029,0.003,-0.0,-0.0002,-0.0003,0,0,0,0,0,0,0.0058,0.0059,0.006,0.0054,0.0053,0.0035,0.0043,0.004,0.0034,0.003,0.0029,0.0022,0.0027,0.0028,0.0013,0.0001,0.0029,0.003,0.0001,-0.0001,-0.0002,-0.0029,0,0,0,0,0,0,0.0058,0.0059,0.0067,0.0055,0.0053,0.0055,0.0043,0.004,0.003,0.0028,0.0027,0.0027,0.0026,0.0012,0.0014,0.0003,0.0031,0.0003,0.0001,-0.0002,-0.0026,-0.0031,-0.0035,0,0,0,0,0,0.0059,0.0076,0.0068,0.0067,0.0064,0.0055,0.0053,0.0039,0.0031,0.0032,0.0013,0.0027,-0.0001,0.0012,0.0014,0.0003,0.0004,0.0001,-0.0001,-0.0024,-0.003,-0.0035,0,0,0,0,0,0,0.008,0.0075,0.0066,0.0081,0.0066,0.0051,0.0051,0.0039,0.0027,0.0022,0.0017,0.0015,-0.0006,0.0002,0.0016,-0.0016,0.0002,-0.0,-0.0016,-0.0022,-0.0026,-0.0027,0.0031,0,0,0,0,0,0.0088,0.0099,0.0082,0.0092,0.0086,0.0067,0.0062,0.005,0.0035,0.0029,0.0025,0.0011,-0.0013,-0.0015,-0.0026,-0.0032,-0.0005,-0.0041,-0.0046,-0.0049,-0.0051,-0.0056,-0.006,-0.0012,-0.0012,-0.0012,0,0,0.0095,0.0095,0.0099,0.0097,0.0085,0.0076,0.0063,0.0055,0.0038,0.0033,0.0017,-0.0002,-0.0021,-0.0043,-0.005,-0.0036,-0.0039,-0.0053,-0.0056,-0.0055,-0.0059,-0.0063,-0.0067,-0.0014,-0.0013,-0.0013,0,0,0.0113,0.0118,0.0126,0.0115,0.0098,0.0086,0.0081,0.0064,0.0047,0.0029,0.0003,-0.0029,-0.0034,-0.0067,-0.0082,-0.0115,-0.0068,-0.0113,-0.0128,-0.0133,-0.0137,-0.014,-0.0062,-0.0058,-0.011,-0.011,-0.011,0,0.0124,0.0131,0.0125,0.0124,0.0112,0.0089,0.0081,0.0063,0.004,0.0022,0.0022,-0.0033,-0.0052,-0.0101,-0.0126,-0.0125,-0.0089,-0.0104,-0.0137,-0.014,-0.0143,-0.0063,-0.0058,-0.0111,-0.0111,-0.0111,-0.0111,0,0.0138,0.0139,0.0143,0.0132,0.012,0.0114,0.008,0.0062,0.0041,0.0021,-0.0024,-0.0058,-0.0081,-0.011,-0.0131,-0.017,-0.0121,-0.0145,-0.0119,-0.0149,-0.0062,-0.0057,-0.0114,-0.0113,-0.0113,-0.0112,0,0,0.0184,0.0158,0.0158,0.0156,0.0123,0.0124,0.0081,0.0046,0.0052,-0.0005,0.0006,-0.0102,-0.0105,-0.0125,-0.0153,-0.0183,-0.0169,-0.0173,-0.0173,-0.0085,-0.0111,-0.0036,-0.0021,-0.0198,-0.0199,-0.0199,-0.0024,0,0.0197,0.0204,0.0172,0.0169,0.0175,0.0124,0.0104,0.0066,0.0053,0.007,-0.0013,0.0009,-0.0112,-0.0079,-0.0155,-0.0134,-0.0165,-0.021,-0.0104,-0.01,-0.0023,-0.0018,-0.0068,0.0086,-0.0018,-0.0017,-0.0016,0,0.0234,0.0231,0.0236,0.0211,0.0207,0.0198,0.0184,0.0172,0.0152,0.0151,0.0108,0.0101,0.0059,-0.0015,-0.0071,-0.0084,-0.0118,-0.0133,-0.0126,-0.0048,-0.0017,0.0087,0.01,-0.0192,-0.0007,-0.0008,-0.0009,0,0.0324,0.0283,0.0293,0.0285,0.0251,0.0236,0.0225,0.0202,0.0263,0.0261,0.0363,0.0233,0.0326,0.0175,0.0133,0.0048,0.0126,0.0019,0.0042,0.0052,0.0033,0.0041,-0.0222,-0.0053,-0.0053,-0.0054,-0.0054,0,0.0396,0.0413,0.0338,0.0364,0.0399,0.033,0.0414,0.0378,0.0436,0.059,0.0456,0.0606,0.0381,0.0406,0.0233,0.0214,0.021,0.0057,0.0087,0.003,0.0035,-0.02,-0.0328,-0.0047,-0.0049,-0.005,-0.0051,0,0.058,0.0497,0.0543,0.0485,0.0469,0.0532,0.0604,0.0709,0.0705,0.0928,0.0972,0.0972,0.1,0.0795,0.0676,0.0468,0.0244,0.0344,0.0341,0.0363,0.0039,-0.0084,-0.0173,-0.0272,0.0368,0.0371,0.0373,0,0.0714,0.0744,0.0706,0.0753,0.0749,0.0815,0.0907,0.0879,0.1024,0.1196,0.1358,0.1433,0.1528,0.1377,0.1006,0.0742,0.0447,0.0526,0.0287,0.0028,-0.0089,-0.0176,-0.0263,0.0283,0.0284,0.0285,0.0286,0,0.1011,0.0974,0.1014,0.1072,0.1147,0.1252,0.1358,0.1488,0.154,0.1702,0.1938,0.2019,0.188,0.1608,0.1234,0.0985,0.0321,0.0542,0.0232,-0.0208,-0.0279,-0.0359,0.0221,0.0296,0.0295,0.0294,0.0294,0.0293,0.1271,0.1349,0.135,0.1414,0.1513,0.1641,0.1748,0.1893,0.2094,0.2289,0.2361,0.2466,0.203,0.1499,0.1167,0.043,0.0447,0.012,0.0,-0.0057,-0.0216,0.0439,0.056,0.0561,0.0561,0.0562,0.0562,0,0.1522,0.1546,0.1679,0.1709,0.1853,0.1819,0.2018,0.2125,0.2348,0.2559,0.2703,0.2502,0.1953,0.133,0.041,-0.0083,-0.0317,-0.0365,-0.0613,-0.0674,-0.0144,-0.0223,-0.0218,-0.0218,-0.0217,-0.0217,-0.0217,-0.0216,0.1642,0.1748,0.1758,0.1958,0.2014,0.2169,0.2264,0.2434,0.257,0.276,0.2768,0.2761,0.2228,0.0671,-0.0466,-0.0726,-0.111,-0.1114,-0.1261,-0.106,-0.103,-0.1002,-0.1118,-0.1299,-0.1301,-0.181,-0.1816,-0.182]}],[{"header":{"parameterUnit":"m.s-1","parameterCategory":2,"la1":30.2991,"la2":30.254,"lo1":-89.0895,"lo2":-89.0444,"dy":0.0017,"dx":0.0017,"nx":28,"ny":28,"refTime":"2024-04-23T03:00:00:Z","depth":"2","parameterNumber":2,"parameterNumberName":"U-component_of_CURRENTS"},"data":[0,0,0,0,0,0,0,0,0,0,0,0,0,0,0,0,0,0,0,0,0,0,0,0,0,0,0,0,0,0,0,0,0,0,0,0,0,0,0,0,0,0,0,0,0,0,0,0,0,0,0,0,0,0,0,0,0,0,0.1735,0.1735,0,0.1749,0.1749,0.1749,0.1741,0.1741,0.1741,0.1741,0.1699,0.1698,0.1697,0,0,0,0,0,0,0,0,0,0,0,0,0,0.1716,0.1716,0.1735,0.1735,0.1736,0.1749,0.1749,0.1749,0.1741,0.1741,0.1741,0.1741,0.1699,0.1698,0.1697,0,0,0,0,0,0,0,0,0,0,0,0,0,0.1724,0.1716,0.1735,0.1735,0.1736,0.1749,0.1749,0.1749,0.1741,0.1741,0.1741,0.1741,0.17,0.1698,0.1697,0.1693,0,0,0.1693,0.1692,0,0,0,0,0,0,0,0,0.1723,0.1724,0.1735,0.1735,0.1736,0.1745,0.1727,0.1728,0.1741,0.1737,0.1741,0.174,0.1711,0.1709,0.1709,0.1691,0.1689,0.1692,0.1692,0.1691,0.169,0,0,0,0,0,0,0,0.1723,0.1724,0.1738,0.1735,0.1736,0.174,0.174,0.1727,0.1722,0.1737,0.1737,0.1742,0.171,0.1711,0.1708,0.1689,0.1692,0.1691,0.169,0.169,0.171,0.1712,0,0,0,0,0,0,0.1725,0.1723,0.1738,0.1739,0.1731,0.174,0.1741,0.174,0.1724,0.1722,0.1743,0.1742,0.1713,0.171,0.1707,0.1733,0.1691,0.169,0.1689,0.1709,0.1711,0.1712,0,0,0,0,0,0,0.1725,0.1726,0.1737,0.1733,0.1735,0.1741,0.1741,0.1741,0.1744,0.1729,0.1725,0.1746,0.1713,0.1709,0.1707,0.173,0.1689,0.1688,0.1707,0.171,0.1711,0.1765,0,0,0,0,0,0,0.1724,0.1726,0.1724,0.1733,0.1736,0.175,0.1741,0.1741,0.1748,0.1748,0.173,0.1726,0.1712,0.1709,0.1705,0.1727,0.1687,0.1706,0.1708,0.1711,0.1761,0.1768,0.1775,0,0,0,0,0,0.1723,0.1722,0.1724,0.1726,0.1734,0.1751,0.1752,0.1754,0.1749,0.1754,0.1747,0.1727,0.1724,0.1709,0.1704,0.1726,0.1704,0.1708,0.1711,0.1758,0.1767,0.1774,0,0,0,0,0,0,0.171,0.1722,0.1724,0.1726,0.1741,0.175,0.1756,0.1757,0.1756,0.1754,0.1736,0.1732,0.1742,0.1728,0.1712,0.1743,0.1714,0.1717,0.1752,0.176,0.1767,0.178,0.1685,0,0,0,0,0,0.1708,0.171,0.1727,0.1728,0.1739,0.1748,0.1754,0.1758,0.1761,0.176,0.1751,0.1747,0.1752,0.175,0.1747,0.1755,0.1774,0.177,0.1777,0.1783,0.1792,0.1832,0.1843,0.1723,0.1723,0.1723,0,0,0.1698,0.1709,0.1707,0.1726,0.1737,0.1759,0.1751,0.1765,0.1782,0.1755,0.1768,0.1765,0.176,0.1776,0.178,0.1766,0.1835,0.1787,0.1792,0.1798,0.1836,0.1848,0.1858,0.1725,0.1724,0.1724,0,0,0.1694,0.1699,0.1706,0.1725,0.175,0.1763,0.177,0.1786,0.1793,0.1805,0.18,0.1816,0.1806,0.1823,0.1826,0.1868,0.1868,0.1864,0.1906,0.1945,0.1955,0.1964,0.2037,0.2052,0.1868,0.1868,0.1868,0,0.168,0.1699,0.1711,0.1734,0.1753,0.1768,0.1791,0.1805,0.1817,0.1832,0.1814,0.1842,0.1835,0.1876,0.1896,0.1884,0.1913,0.1873,0.1954,0.1963,0.1971,0.2043,0.2059,0.1871,0.187,0.187,0.187,0,0.1693,0.171,0.1721,0.1756,0.1779,0.18,0.1831,0.1849,0.1857,0.1874,0.1908,0.1907,0.1928,0.1933,0.1924,0.1987,0.1993,0.1956,0.1932,0.1986,0.2059,0.2075,0.1875,0.1874,0.1873,0.1872,0,0,0.1648,0.1714,0.1717,0.1745,0.1794,0.1814,0.1854,0.1898,0.1928,0.1942,0.1984,0.2006,0.2012,0.2018,0.2017,0.2051,0.2146,0.2032,0.2032,0.2104,0.2262,0.2289,0.2308,0.2117,0.2119,0.2121,0.2301,0,0.1653,0.1701,0.1735,0.1782,0.1813,0.1852,0.1886,0.1929,0.1961,0.2003,0.2029,0.206,0.2043,0.2055,0.2093,0.2137,0.2184,0.2103,0.2198,0.2202,0.2218,0.2325,0.2073,0.2213,0.2316,0.2318,0.232,0,0.1654,0.1692,0.1736,0.1806,0.1823,0.1851,0.1921,0.1954,0.2024,0.2051,0.21,0.2116,0.2198,0.2147,0.2273,0.2222,0.2249,0.2273,0.228,0.2294,0.2258,0.2169,0.2237,0.2346,0.2344,0.2342,0.234,0,0.1621,0.1692,0.1728,0.1751,0.1828,0.1854,0.1894,0.1964,0.2012,0.2085,0.2141,0.2208,0.2276,0.2311,0.2394,0.2331,0.2531,0.2444,0.2499,0.2502,0.2303,0.2285,0.2514,0.2514,0.2513,0.2513,0.2512,0,0.1613,0.1639,0.1714,0.1731,0.1782,0.1837,0.1895,0.1944,0.2032,0.2115,0.2163,0.2252,0.2317,0.2436,0.2451,0.2576,0.259,0.2547,0.2558,0.232,0.2302,0.2408,0.2394,0.252,0.2518,0.2517,0.2516,0,0.1565,0.1613,0.1655,0.1734,0.1764,0.1793,0.1901,0.1951,0.204,0.2155,0.2188,0.2337,0.2498,0.2585,0.2694,0.2689,0.2763,0.2784,0.2535,0.2512,0.2687,0.2673,0.2856,0.2858,0.2861,0.2862,0.2864,0,0.1544,0.156,0.1641,0.1674,0.1709,0.1774,0.1828,0.1932,0.2006,0.2212,0.2276,0.247,0.2601,0.282,0.2808,0.2881,0.2892,0.2711,0.253,0.2735,0.2726,0.2708,0.2692,0.2296,0.2293,0.229,0.2288,0,0.1496,0.1517,0.1554,0.1624,0.1682,0.1755,0.1848,0.1908,0.2055,0.2183,0.2367,0.2485,0.2685,0.2665,0.2785,0.2766,0.2675,0.2663,0.2949,0.2259,0.2224,0.221,0.2208,0.2265,0.2267,0.2269,0.227,0.2271,0.1443,0.1457,0.1504,0.1572,0.164,0.1709,0.1748,0.1876,0.1994,0.213,0.23,0.2404,0.2469,0.2508,0.2494,0.2473,0.2616,0.2482,0.2482,0.2486,0.2399,0.2371,0.2426,0.2429,0.2432,0.2434,0.2436,0,0.137,0.1408,0.1461,0.1527,0.157,0.1641,0.1747,0.1772,0.189,0.2023,0.2138,0.201,0.2058,0.215,0.2065,0.2107,0.1988,0.2051,0.1847,0.1874,0.1898,0.1771,0.1636,0.1634,0.1632,0.1629,0,0,0.1328,0.1346,0.1386,0.1432,0.1491,0.1527,0.1568,0.1633,0.1715,0.1725,0.1754,0.1884,0.2061,0.178,0.1779,0.1706,0.1763,0.1646,0.2287,0.2071,0.2091,0.2154,0.1994,0,0,0,0,0]},{"header":{"parameterUnit":"m.s-1","parameterCategory":2,"la1":30.2991,"la2":30.254,"lo1":-89.0895,"lo2":-89.0444,"dy":0.0017,"dx":0.0017,"nx":28,"ny":28,"refTime":"2024-04-23T03:00:00:Z","depth":"2","parameterNumber":3,"parameterNumberName":"V-component_of_CURRENTS"},"data":[0,0,0,0,0,0,0,0,0,0,0,0,0,0,0,0,0,0,0,0,0,0,0,0,0,0,0,0,0,0,0,0,0,0,0,0,0,0,0,0,0,0,0,0,0,0,0,0,0,0,0,0,0,0,0,0,0,0,-0.0498,-0.0498,0,-0.0593,-0.0594,-0.0596,-0.0644,-0.0644,-0.0643,-0.0643,-0.0784,-0.0788,-0.0792,0,0,0,0,0,0,0,0,0,0,0,0,0,-0.0355,-0.0358,-0.0497,-0.0498,-0.0499,-0.0593,-0.0594,-0.0596,-0.0644,-0.0644,-0.0643,-0.0643,-0.0782,-0.0787,-0.0792,0,0,0,0,0,0,0,0,0,0,0,0,0,-0.0435,-0.0359,-0.0497,-0.053,-0.0534,-0.0592,-0.0594,-0.0597,-0.0644,-0.0644,-0.0643,-0.0642,-0.0781,-0.0787,-0.0793,-0.0845,0,0,-0.0812,-0.0815,0,0,0,0,0,0,0,0,-0.0431,-0.0441,-0.0525,-0.0528,-0.0532,-0.0601,-0.0596,-0.068,-0.0645,-0.0608,-0.0643,-0.0642,-0.0724,-0.0735,-0.0761,-0.0851,-0.0857,-0.0812,-0.0816,-0.0819,-0.0821,0,0,0,0,0,0,0,-0.0425,-0.0437,-0.0541,-0.0525,-0.053,-0.0539,-0.0551,-0.0612,-0.0673,-0.0611,-0.0613,-0.0616,-0.0727,-0.0755,-0.0765,-0.086,-0.0812,-0.0818,-0.0822,-0.0824,-0.0952,-0.0951,0,0,0,0,0,0,-0.0404,-0.0432,-0.0537,-0.0543,-0.0473,-0.0542,-0.0555,-0.0584,-0.0672,-0.0683,-0.0616,-0.0618,-0.0745,-0.0757,-0.077,-0.0805,-0.0819,-0.0825,-0.0828,-0.0952,-0.0952,-0.0951,0,0,0,0,0,0,-0.0401,-0.0414,-0.0534,-0.0484,-0.0499,-0.0545,-0.0577,-0.0586,-0.0604,-0.0674,-0.0687,-0.0622,-0.0745,-0.0761,-0.0819,-0.0812,-0.0828,-0.0833,-0.0953,-0.0952,-0.0951,-0.0896,0,0,0,0,0,0,-0.0398,-0.0413,-0.0436,-0.0483,-0.0501,-0.0571,-0.0578,-0.0588,-0.0604,-0.0607,-0.0684,-0.0697,-0.0745,-0.0809,-0.0825,-0.0821,-0.0838,-0.0953,-0.0952,-0.0952,-0.0898,-0.0894,-0.089,0,0,0,0,0,-0.0393,-0.0423,-0.0437,-0.0449,-0.0529,-0.0571,-0.0582,-0.0614,-0.0605,-0.0625,-0.0666,-0.0694,-0.0815,-0.0815,-0.0833,-0.0831,-0.0953,-0.0952,-0.0952,-0.09,-0.0895,-0.089,0,0,0,0,0,0,-0.0365,-0.0432,-0.0448,-0.0496,-0.0529,-0.0577,-0.06,-0.0606,-0.0654,-0.0655,-0.0708,-0.0725,-0.0771,-0.0808,-0.0806,-0.0862,-0.0882,-0.0885,-0.0836,-0.0832,-0.0828,-0.081,-0.0843,0,0,0,0,0,-0.037,-0.0414,-0.0464,-0.0497,-0.0519,-0.0554,-0.0574,-0.0591,-0.0632,-0.0652,-0.0688,-0.0733,-0.0786,-0.0812,-0.0867,-0.0908,-0.0934,-0.0911,-0.0907,-0.0903,-0.09,-0.0941,-0.094,-0.0949,-0.0949,-0.0949,0,0,-0.0361,-0.0404,-0.0426,-0.0494,-0.0527,-0.0545,-0.0567,-0.0597,-0.0599,-0.0661,-0.0679,-0.0729,-0.0794,-0.0839,-0.086,-0.0866,-0.091,-0.0902,-0.0898,-0.0897,-0.094,-0.0939,-0.0938,-0.0948,-0.0948,-0.0948,0,0,-0.0356,-0.0412,-0.0443,-0.0471,-0.0517,-0.0541,-0.0541,-0.058,-0.0597,-0.0631,-0.0664,-0.0702,-0.0778,-0.0814,-0.0846,-0.0849,-0.089,-0.0861,-0.0826,-0.0866,-0.0866,-0.0866,-0.0881,-0.0883,-0.0854,-0.0853,-0.0853,0,-0.0339,-0.0387,-0.0453,-0.0477,-0.0483,-0.0528,-0.0531,-0.0563,-0.0603,-0.0612,-0.0629,-0.0713,-0.0765,-0.0809,-0.0809,-0.0839,-0.0865,-0.0842,-0.086,-0.0861,-0.0862,-0.0878,-0.0881,-0.0851,-0.0851,-0.0851,-0.0852,0,-0.0354,-0.038,-0.0397,-0.0443,-0.0463,-0.0477,-0.0514,-0.053,-0.0544,-0.0567,-0.0611,-0.0681,-0.0727,-0.0744,-0.0787,-0.0811,-0.0826,-0.0854,-0.0872,-0.0858,-0.0875,-0.0879,-0.0847,-0.0848,-0.0849,-0.0849,0,0,-0.0334,-0.0396,-0.0395,-0.0396,-0.044,-0.0452,-0.0465,-0.0491,-0.0492,-0.054,-0.0545,-0.0626,-0.0657,-0.0693,-0.074,-0.0771,-0.0797,-0.0812,-0.0816,-0.0823,-0.0872,-0.0871,-0.0875,-0.0835,-0.0836,-0.0837,-0.0874,0,-0.0316,-0.0336,-0.0371,-0.0359,-0.0368,-0.04,-0.0404,-0.043,-0.0466,-0.0488,-0.0556,-0.0589,-0.0641,-0.066,-0.0706,-0.0769,-0.0808,-0.0783,-0.0888,-0.089,-0.0889,-0.0881,-0.0781,-0.0806,-0.0879,-0.0879,-0.088,0,-0.0317,-0.0325,-0.0316,-0.0315,-0.0321,-0.0316,-0.0323,-0.0337,-0.0392,-0.0419,-0.0469,-0.0524,-0.0568,-0.0624,-0.0723,-0.0707,-0.0791,-0.0844,-0.0847,-0.087,-0.0897,-0.0837,-0.0811,-0.0887,-0.0886,-0.0886,-0.0885,0,-0.0276,-0.028,-0.0263,-0.0264,-0.028,-0.027,-0.0275,-0.0313,-0.0316,-0.037,-0.0371,-0.0457,-0.0466,-0.0591,-0.0692,-0.0716,-0.0802,-0.085,-0.0929,-0.0929,-0.0876,-0.0871,-0.0946,-0.0946,-0.0946,-0.0946,-0.0946,0,-0.0257,-0.0242,-0.0239,-0.0235,-0.0201,-0.0224,-0.0206,-0.023,-0.0253,-0.0242,-0.0328,-0.0334,-0.0459,-0.0526,-0.0666,-0.0785,-0.0782,-0.0919,-0.0943,-0.0852,-0.0844,-0.0946,-0.0945,-0.0947,-0.0947,-0.0947,-0.0946,0,-0.0246,-0.0242,-0.0222,-0.0207,-0.0191,-0.0174,-0.0151,-0.0146,-0.0162,-0.0148,-0.015,-0.0214,-0.0296,-0.0429,-0.0591,-0.0708,-0.0851,-0.0907,-0.0775,-0.0784,-0.0964,-0.096,-0.1006,-0.1006,-0.1006,-0.1007,-0.1007,0,-0.0261,-0.0247,-0.0199,-0.0174,-0.0169,-0.0135,-0.0112,-0.0108,-0.0092,-0.0078,-0.0065,-0.0115,-0.0146,-0.0359,-0.0549,-0.0753,-0.0847,-0.0834,-0.0881,-0.0953,-0.0972,-0.0967,-0.0963,-0.0778,-0.0776,-0.0775,-0.0774,0,-0.0281,-0.0254,-0.0233,-0.0164,-0.0123,-0.0075,-0.0034,0.0007,0.0028,0.0076,0.0113,0.0102,-0.0068,-0.0216,-0.0474,-0.0627,-0.0792,-0.0817,-0.0917,-0.0785,-0.0744,-0.0761,-0.0763,-0.0762,-0.0763,-0.0764,-0.0764,-0.0765,-0.0293,-0.0267,-0.0213,-0.0146,-0.0094,-0.0013,0.0056,0.0124,0.0212,0.0336,0.0279,0.0325,0.0106,-0.0164,-0.0416,-0.0672,-0.0721,-0.0821,-0.0823,-0.0827,-0.08,-0.0764,-0.0778,-0.0779,-0.078,-0.0781,-0.0782,0,-0.0281,-0.0236,-0.0193,-0.0094,-0.0018,0.0009,0.0117,0.0225,0.0384,0.0484,0.0571,0.0435,0.0255,-0.0031,-0.037,-0.0618,-0.0618,-0.0714,-0.0659,-0.0669,-0.0678,-0.0643,-0.058,-0.058,-0.058,-0.0581,0,0,-0.0269,-0.0203,-0.0161,-0.0025,0.0044,0.0186,0.0272,0.0441,0.0557,0.0706,0.0764,0.0771,0.0389,0.0176,-0.0156,-0.0364,-0.0457,-0.0396,-0.0526,-0.043,-0.0435,-0.0704,-0.0657,0,0,0,0,0]}],[{"header":{"parameterUnit":"m.s-1","parameterCategory":2,"la1":30.2991,"la2":30.254,"lo1":-89.0895,"lo2":-89.0444,"dy":0.0017,"dx":0.0017,"nx":28,"ny":28,"refTime":"2024-04-23T03:00:00:Z","depth":"4","parameterNumber":2,"parameterNumberName":"U-component_of_CURRENTS"},"data":[0,0,0,0,0,0,0,0,0,0,0,0,0,0,0,0,0,0,0,0,0,0,0,0,0,0,0,0,0,0,0,0,0,0,0,0,0,0,0,0,0,0,0,0,0,0,0,0,0,0,0,0,0,0,0,0,0,0,0.0952,0.0953,0,0.0982,0.0982,0.0982,0.1012,0.1013,0.1013,0.1014,0.1047,0.1048,0.1048,0,0,0,0,0,0,0,0,0,0,0,0,0,0.0895,0.0896,0.0952,0.0953,0.0953,0.0981,0.0982,0.0982,0.1012,0.1013,0.1013,0.1014,0.1047,0.1048,0.1048,0,0,0,0,0,0,0,0,0,0,0,0,0,0.0919,0.0896,0.0952,0.0973,0.0976,0.0981,0.0982,0.0982,0.1012,0.1013,0.1014,0.1015,0.1047,0.1048,0.1048,0.1032,0,0,0.1049,0.105,0,0,0,0,0,0,0,0,0.0918,0.0921,0.097,0.0972,0.0975,0.0996,0.0974,0.1,0.1012,0.0996,0.1014,0.1015,0.1031,0.1033,0.1033,0.1034,0.1035,0.105,0.105,0.105,0.105,0,0,0,0,0,0,0,0.0916,0.092,0.0962,0.097,0.0973,0.0972,0.0977,0.0979,0.1006,0.0997,0.1,0.1007,0.1033,0.1033,0.1034,0.1036,0.1049,0.105,0.105,0.105,0.1082,0.1083,0,0,0,0,0,0,0.0918,0.0919,0.0961,0.0963,0.0951,0.0973,0.0978,0.0986,0.1006,0.1011,0.1006,0.1008,0.1032,0.1034,0.1036,0.1096,0.105,0.105,0.1051,0.1082,0.1082,0.1083,0,0,0,0,0,0,0.0917,0.0921,0.096,0.0943,0.0948,0.0973,0.0982,0.0987,0.1011,0.1013,0.1018,0.103,0.1032,0.1035,0.106,0.1094,0.1051,0.1051,0.1081,0.1082,0.1083,0.1166,0,0,0,0,0,0,0.0915,0.0921,0.0937,0.0943,0.0949,0.0976,0.0982,0.0987,0.1014,0.1017,0.1034,0.1037,0.1033,0.106,0.1061,0.1094,0.1051,0.108,0.1081,0.1082,0.1162,0.1169,0.1175,0,0,0,0,0,0.0913,0.0926,0.0938,0.0944,0.0968,0.0976,0.0979,0.0998,0.1014,0.1024,0.1042,0.1038,0.1067,0.1061,0.1062,0.1096,0.108,0.1081,0.1082,0.1159,0.1168,0.1175,0,0,0,0,0,0,0.0907,0.0931,0.0944,0.0964,0.0977,0.0983,0.0998,0.1011,0.1032,0.1044,0.1047,0.1051,0.1086,0.1071,0.1064,0.1105,0.1072,0.1073,0.113,0.1138,0.1144,0.116,0.1052,0,0,0,0,0,0.0914,0.0935,0.095,0.0969,0.0978,0.0993,0.1004,0.1017,0.1031,0.1043,0.106,0.1072,0.1086,0.1098,0.1102,0.1124,0.113,0.1144,0.1151,0.1156,0.1168,0.1218,0.1231,0.1087,0.1087,0.1087,0,0,0.0917,0.0934,0.0947,0.097,0.0983,0.0995,0.1002,0.1024,0.1047,0.1042,0.1087,0.1098,0.1096,0.1126,0.114,0.1124,0.1197,0.1158,0.1164,0.1172,0.1221,0.1235,0.1248,0.1088,0.1088,0.1088,0,0,0.0923,0.095,0.0967,0.098,0.1006,0.1012,0.1025,0.1047,0.1074,0.1107,0.1116,0.115,0.1165,0.118,0.1185,0.1226,0.123,0.1227,0.1279,0.1328,0.1341,0.1352,0.1369,0.1382,0.1231,0.1231,0.1231,0,0.0927,0.0949,0.0971,0.0987,0.1002,0.1023,0.1038,0.1063,0.1095,0.1121,0.1131,0.1188,0.1192,0.1236,0.1259,0.1245,0.1266,0.1255,0.134,0.1351,0.1362,0.1377,0.1389,0.1235,0.1235,0.1234,0.1234,0,0.0938,0.0963,0.0973,0.1002,0.102,0.1036,0.1068,0.1099,0.1136,0.1163,0.1231,0.1254,0.1289,0.1298,0.1297,0.1372,0.136,0.1346,0.1328,0.1382,0.1393,0.1405,0.1241,0.124,0.1239,0.1238,0,0,0.0919,0.097,0.0975,0.0995,0.1031,0.1043,0.1087,0.1127,0.1174,0.1223,0.1293,0.1334,0.1369,0.1377,0.1393,0.1442,0.1534,0.144,0.144,0.147,0.1637,0.1521,0.1522,0.1552,0.1555,0.1557,0.1611,0,0.0919,0.095,0.098,0.1011,0.1025,0.1063,0.11,0.1145,0.1206,0.128,0.1332,0.1406,0.1393,0.1444,0.1489,0.1535,0.1572,0.152,0.1567,0.1568,0.1471,0.1534,0.1566,0.162,0.1623,0.1625,0.1626,0,0.0911,0.0935,0.0967,0.1019,0.1031,0.106,0.1132,0.1169,0.1266,0.1327,0.1411,0.1469,0.1562,0.1549,0.1646,0.1623,0.1637,0.1658,0.166,0.1534,0.1475,0.1554,0.1647,0.1646,0.1644,0.1643,0.1641,0,0.087,0.0924,0.0952,0.0968,0.1028,0.1064,0.1099,0.1184,0.1239,0.1381,0.1446,0.1557,0.1642,0.1687,0.1722,0.1714,0.1812,0.1796,0.1691,0.1682,0.1733,0.172,0.1854,0.1854,0.1854,0.1853,0.1853,0,0.0843,0.0865,0.0945,0.0953,0.0998,0.1052,0.1122,0.1179,0.1293,0.1368,0.1474,0.1548,0.1693,0.1755,0.1761,0.1755,0.1836,0.1715,0.17,0.1762,0.1752,0.1741,0.1727,0.1855,0.1855,0.1855,0.1854,0,0.0786,0.0837,0.0868,0.0946,0.0977,0.1008,0.1117,0.1165,0.128,0.139,0.1448,0.1594,0.1683,0.1756,0.1853,0.18,0.1806,0.1769,0.1822,0.1806,0.1636,0.1626,0.1691,0.1688,0.1685,0.1682,0.168,0,0.0758,0.0768,0.0848,0.0864,0.0904,0.0973,0.1013,0.1146,0.1188,0.1381,0.1399,0.1571,0.1651,0.1668,0.1754,0.177,0.1738,0.1733,0.1701,0.1647,0.1626,0.162,0.1613,0.1676,0.1675,0.1674,0.1674,0,0.0691,0.0726,0.075,0.078,0.0831,0.0886,0.0947,0.0983,0.1137,0.1275,0.136,0.1452,0.1543,0.1614,0.1644,0.1635,0.1746,0.1703,0.1709,0.1679,0.1629,0.1609,0.1607,0.1664,0.1665,0.1666,0.1667,0,0.0637,0.0637,0.0662,0.0689,0.074,0.0762,0.0823,0.0881,0.0963,0.1177,0.1208,0.1366,0.1529,0.1539,0.1543,0.1561,0.155,0.1508,0.1524,0.1536,0.1461,0.1373,0.1332,0,0,0,0,0,0.0582,0.0568,0.0563,0.0582,0.0624,0.0664,0.075,0.0813,0.0986,0.1018,0.1119,0.1197,0.1308,0.1357,0.1347,0.1457,0.1531,0.1439,0.1482,0.1609,0.162,0.1547,0,0,0,0,0,0,0.0537,0.0535,0.053,0.0491,0.0488,0.0532,0.0598,0.0713,0.0708,0.09,0.0935,0.1121,0.1194,0.1304,0.1323,0.1346,0.1349,0.1543,0.154,0.1602,0.1613,0.1622,0.1551,0,0,0,0,0]},{"header":{"parameterUnit":"m.s-1","parameterCategory":2,"la1":30.2991,"la2":30.254,"lo1":-89.0895,"lo2":-89.0444,"dy":0.0017,"dx":0.0017,"nx":28,"ny":28,"refTime":"2024-04-23T03:00:00:Z","depth":"4","parameterNumber":3,"parameterNumberName":"V-component_of_CURRENTS"},"data":[0,0,0,0,0,0,0,0,0,0,0,0,0,0,0,0,0,0,0,0,0,0,0,0,0,0,0,0,0,0,0,0,0,0,0,0,0,0,0,0,0,0,0,0,0,0,0,0,0,0,0,0,0,0,0,0,0,0,-0.01,-0.0101,0,-0.014,-0.014,-0.0141,-0.0172,-0.0173,-0.0173,-0.0173,-0.023,-0.0231,-0.0232,0,0,0,0,0,0,0,0,0,0,0,0,0,-0.005,-0.0051,-0.01,-0.0101,-0.0101,-0.014,-0.0141,-0.0141,-0.0172,-0.0173,-0.0173,-0.0174,-0.023,-0.0231,-0.0232,0,0,0,0,0,0,0,0,0,0,0,0,0,-0.0078,-0.0051,-0.01,-0.0123,-0.0125,-0.014,-0.0141,-0.0141,-0.0172,-0.0173,-0.0173,-0.0174,-0.0229,-0.0231,-0.0232,-0.023,0,0,-0.0238,-0.0238,0,0,0,0,0,0,0,0,-0.0077,-0.008,-0.0119,-0.0121,-0.0124,-0.0153,-0.0144,-0.0172,-0.0172,-0.0153,-0.0173,-0.0174,-0.0206,-0.021,-0.0214,-0.0233,-0.0235,-0.0238,-0.0239,-0.0239,-0.024,0,0,0,0,0,0,0,-0.0075,-0.0078,-0.0115,-0.0119,-0.0122,-0.013,-0.0135,-0.0149,-0.0175,-0.0155,-0.0157,-0.0163,-0.0208,-0.0212,-0.0215,-0.0236,-0.0238,-0.0239,-0.024,-0.0241,-0.0231,-0.0229,0,0,0,0,0,0,-0.0072,-0.0076,-0.0114,-0.0116,-0.0103,-0.0131,-0.0136,-0.0142,-0.0174,-0.018,-0.0163,-0.0165,-0.0209,-0.0213,-0.0218,-0.0202,-0.0239,-0.0241,-0.0242,-0.0232,-0.023,-0.0229,0,0,0,0,0,0,-0.007,-0.0074,-0.0112,-0.0098,-0.0104,-0.0131,-0.0138,-0.0142,-0.0153,-0.0181,-0.0187,-0.0169,-0.021,-0.0215,-0.0217,-0.0205,-0.0242,-0.0243,-0.0233,-0.0231,-0.023,-0.018,0,0,0,0,0,0,-0.0069,-0.0074,-0.0076,-0.0098,-0.0104,-0.0115,-0.0137,-0.0143,-0.0156,-0.0159,-0.0188,-0.0194,-0.0211,-0.0214,-0.0218,-0.0208,-0.0245,-0.0235,-0.0232,-0.023,-0.0183,-0.0176,-0.0171,0,0,0,0,0,-0.0067,-0.0067,-0.0076,-0.0081,-0.0107,-0.0115,-0.0118,-0.014,-0.0155,-0.0153,-0.0165,-0.0193,-0.0202,-0.0214,-0.022,-0.0209,-0.0236,-0.0233,-0.023,-0.0186,-0.0178,-0.0171,0,0,0,0,0,0,-0.0045,-0.0071,-0.0081,-0.0089,-0.0099,-0.0121,-0.0124,-0.0139,-0.0148,-0.0153,-0.0179,-0.0185,-0.0181,-0.0197,-0.021,-0.0196,-0.0223,-0.0221,-0.0187,-0.0179,-0.0173,-0.0148,-0.0246,0,0,0,0,0,-0.0041,-0.005,-0.007,-0.0075,-0.008,-0.0102,-0.011,-0.0122,-0.0135,-0.014,-0.0159,-0.0171,-0.0172,-0.0178,-0.0184,-0.0181,-0.0206,-0.0175,-0.0169,-0.0164,-0.0144,-0.0164,-0.0158,-0.0219,-0.0219,-0.0219,0,0,-0.0035,-0.005,-0.0056,-0.0071,-0.0083,-0.0074,-0.0108,-0.0116,-0.0102,-0.0144,-0.0135,-0.0153,-0.0165,-0.0155,-0.0155,-0.0169,-0.0164,-0.016,-0.0155,-0.0139,-0.016,-0.0154,-0.0149,-0.0217,-0.0218,-0.0218,0,0,-0.002,-0.0038,-0.0038,-0.004,-0.0054,-0.0061,-0.0062,-0.0081,-0.0084,-0.008,-0.0098,-0.0101,-0.0117,-0.0112,-0.0113,-0.0075,-0.013,-0.0087,-0.0039,-0.0058,-0.0053,-0.0049,-0.01,-0.0101,-0.0085,-0.0085,-0.0085,0,-0.0013,-0.001,-0.0037,-0.0028,-0.002,-0.005,-0.003,-0.0033,-0.0048,-0.0037,-0.0069,-0.0065,-0.0089,-0.0053,-0.0044,-0.0061,-0.0095,-0.007,-0.0051,-0.0048,-0.0044,-0.0097,-0.0098,-0.0082,-0.0083,-0.0083,-0.0083,0,0.0008,0.0015,0.0018,0.0024,0.0031,0.004,0.0038,0.0046,0.0032,0.0027,0.0044,0.0018,0.0021,0.0011,-0.001,0.0012,-0.0029,-0.0043,-0.0073,-0.0035,-0.0093,-0.0096,-0.0078,-0.0079,-0.008,-0.0081,0,0,0.0008,0.0029,0.003,0.0053,0.0061,0.0072,0.0105,0.0131,0.0153,0.0135,0.0159,0.0157,0.0128,0.0127,0.0098,0.0082,0.0054,0.0028,0.0025,-0.0027,-0.0019,-0.0054,-0.0061,0.0033,0.0034,0.0034,-0.0078,0,0.0033,0.0069,0.0075,0.0125,0.0147,0.0156,0.0193,0.0213,0.0211,0.0223,0.0208,0.0206,0.0177,0.016,0.0149,0.0073,0.0053,0.0084,-0.0041,-0.0045,-0.0084,-0.0061,0.0036,-0.008,-0.0081,-0.0081,-0.0082,0,0.0047,0.0075,0.0124,0.0186,0.0198,0.0227,0.0285,0.0314,0.0334,0.0325,0.0331,0.0293,0.0276,0.0231,0.0152,0.0165,0.0089,0.003,0.0024,-0.0021,-0.0083,-0.0118,-0.0087,-0.0087,-0.0086,-0.0086,-0.0086,0,0.0051,0.0111,0.0156,0.0174,0.0235,0.0271,0.0309,0.0345,0.0373,0.0379,0.037,0.0356,0.0309,0.0249,0.0119,0.0126,0.0007,-0.0003,-0.0096,-0.0102,-0.0062,-0.0065,-0.0043,-0.0043,-0.0043,-0.0042,-0.0042,0,0.0066,0.0099,0.0164,0.0186,0.0249,0.0294,0.0353,0.0382,0.0421,0.0445,0.0416,0.0401,0.0307,0.0221,0.0131,-0.0003,0.0012,-0.0079,-0.0121,-0.0043,-0.0041,-0.0067,-0.0068,-0.0047,-0.0046,-0.0045,-0.0044,0,0.0038,0.0081,0.0132,0.0214,0.0243,0.0284,0.0368,0.0412,0.0441,0.0464,0.0459,0.0409,0.0293,0.019,0.0049,-0.0012,-0.0122,-0.0172,-0.0105,-0.0143,-0.0222,-0.0219,-0.0274,-0.0276,-0.0277,-0.0279,-0.028,0,0.0018,0.0044,0.0131,0.0167,0.02,0.0274,0.0328,0.0401,0.0447,0.0464,0.047,0.0369,0.0314,0.01,-0.0011,-0.018,-0.0196,-0.0257,-0.0197,-0.0205,-0.024,-0.0235,-0.023,-0.0282,-0.0283,-0.0283,-0.0284,0,-0.0011,0.0017,0.0064,0.0147,0.0209,0.0285,0.0371,0.0399,0.048,0.0487,0.0467,0.037,0.0231,0.0086,-0.0062,-0.0173,-0.0212,-0.0274,-0.027,-0.0214,-0.0216,-0.0248,-0.0241,-0.0289,-0.0288,-0.0288,-0.0288,0,-0.0037,-0.0011,0.0071,0.0143,0.0219,0.031,0.0343,0.0414,0.0467,0.0496,0.0468,0.0349,0.0275,0.0085,-0.0044,-0.0166,-0.018,-0.0195,-0.0196,-0.0191,-0.0126,-0.0113,-0.0182,0,0,0,0,0,-0.004,0.0019,0.0076,0.0181,0.0252,0.0314,0.0396,0.0433,0.0481,0.0471,0.0488,0.0368,0.0181,0.0097,-0.003,-0.008,-0.0211,-0.0233,-0.0231,-0.032,-0.0314,-0.0252,0,0,0,0,0,0,-0.0022,0.0036,0.0084,0.0212,0.0279,0.0387,0.0437,0.0461,0.047,0.0476,0.0376,0.0339,0.015,0.0252,-0.0033,-0.0071,-0.0086,-0.0319,-0.0322,-0.0324,-0.0318,-0.0313,-0.0247,0,0,0,0,0]}]]